New Roads False River Regiona, LA

3:09 PM CST on November 16, 2019 (GMT -0600)
False River

Weather History for KHZR - August, 2019

Change the Weather History Date:

Thursday, August 8, 2019

  Actual Average (WUND) Record (WUND)
Temperature  
Mean Temperature 84 °F -  
Max Temperature 93 °F - - (-1)
Min Temperature 75 °F - - (-1)
Cooling Degree Days 19    
Growing Degree Days 34 (Base 50)    
Moisture  
Dew Point 76 °F    
Average Humidity 81    
Maximum Humidity 100    
Minimum Humidity 55    
Precipitation  
Precipitation 0.00 in - - ()
Sea Level Pressure  
Sea Level Pressure 29.97 in    
Wind  
Wind Speed 3 mph (WSW)    
Max Wind Speed 9 mph    
Max Gust Speed 16 mph    
Visibility 10 miles    
Events Thunderstorm    
Averages and records for this station are not official NWS values.
T = Trace of Precipitation, MM = Missing Value Source: NWS Daily Summary

Daily Weather History Graph

Daily Weather History Graph

Search for Another Location

Airport or City:

Astronomy

Aug. 08, 2019 Rise Set
Actual Time 6:27 AM CDT 7:54 PM CDT
Civil Twilight 6:02 AM CDT 8:20 PM CDT
Nautical Twilight 5:31 AM CDT 8:51 PM CDT
Astronomical Twilight 4:59 AM CDT 9:23 PM CDT
Moon 2:30 PM CDT (8/8) 12:47 AM CDT (8/8)
Length of Visible Light 14h 18m
Length of Day
13h 26m
First Quarter, 60% of the Moon is Illuminated
Aug 8
First Quarter
Aug 15
Full
Aug 23
Last Quarter
Aug 30
New
Sep 5
First Quarter

Hourly Weather History & Observations

Time (CDT) Temp. Heat Index Dew Point Humidity Pressure Visibility Wind Dir Wind Speed Gust Speed Precip Events Conditions
12:36 AM 78.8 °F - 77.0 °F 94% 29.95 in 10.0 mi South 3.5 mph - N/A   Clear
12:56 AM 78.8 °F - 77.0 °F 94% 29.94 in 10.0 mi SSW 3.5 mph - N/A   Clear
1:36 AM 77.0 °F - 75.2 °F 94% 29.94 in 10.0 mi Calm Calm - N/A   Clear
1:55 AM 77.0 °F - 75.2 °F 94% 29.94 in 10.0 mi Calm Calm - N/A   Clear
2:16 AM 77.0 °F - 75.2 °F 94% 29.95 in 10.0 mi Calm Calm - N/A   Clear
2:37 AM 75.2 °F - 75.2 °F 100% 29.94 in 10.0 mi Calm Calm - N/A   Clear
2:56 AM 75.2 °F - 75.2 °F 100% 29.94 in 10.0 mi Calm Calm - N/A   Clear
3:16 AM 77.0 °F - 75.2 °F 94% 29.94 in 10.0 mi Calm Calm - N/A   Clear
3:38 AM 75.2 °F - 75.2 °F 100% 29.94 in 10.0 mi Calm Calm - N/A   Clear
3:55 AM 75.2 °F - 75.2 °F 100% 29.94 in 10.0 mi Calm Calm - N/A   Clear
4:16 AM 75.2 °F - 75.2 °F 100% 29.95 in 10.0 mi Calm Calm - N/A   Clear
4:56 AM 75.2 °F - 75.2 °F 100% 29.96 in 7.0 mi Calm Calm - N/A   Clear
5:37 AM 75.2 °F - 75.2 °F 100% 29.96 in 10.0 mi Calm Calm - N/A   Clear
5:57 AM 75.2 °F - 75.2 °F 100% 29.97 in 7.0 mi Calm Calm - N/A   Clear
6:16 AM 75.2 °F - 75.2 °F 100% 29.97 in 10.0 mi Calm Calm - N/A   Clear
6:57 AM 75.2 °F - 75.2 °F 100% 29.98 in 5.0 mi Calm Calm - N/A   Clear
7:16 AM 75.2 °F - 75.2 °F 100% 29.98 in 5.0 mi Calm Calm - N/A   Clear
7:36 AM 77.0 °F - 77.0 °F 100% 29.99 in 7.0 mi Calm Calm - N/A   Clear
7:56 AM 78.8 °F - 78.8 °F 100% 29.99 in 10.0 mi Calm Calm - N/A   Clear
8:16 AM 80.6 °F 88.1 °F 78.8 °F 94% 29.99 in 10.0 mi SW 3.5 mph - N/A   Clear
8:37 AM 82.4 °F 92.4 °F 78.8 °F 89% 30.00 in 10.0 mi WSW 5.8 mph - N/A   Clear
8:56 AM 82.4 °F 92.4 °F 78.8 °F 89% 30.00 in 10.0 mi WSW 5.8 mph - N/A   Clear
9:16 AM 84.2 °F 96.1 °F 78.8 °F 84% 30.00 in 10.0 mi WSW 6.9 mph - N/A   Clear
9:36 AM 84.2 °F 96.1 °F 78.8 °F 84% 30.01 in 10.0 mi WSW 6.9 mph - N/A   Mostly Cloudy
9:56 AM 84.2 °F 96.1 °F 78.8 °F 84% 30.01 in 10.0 mi WSW 6.9 mph 16.1 mph N/A   Mostly Cloudy
10:16 AM 86.0 °F 99.3 °F 78.8 °F 79% 30.01 in 10.0 mi West 8.1 mph - N/A   Mostly Cloudy
10:37 AM 87.8 °F 99.7 °F 77.0 °F 70% 30.01 in 10.0 mi West 8.1 mph - N/A   Scattered Clouds
10:56 AM 87.8 °F 99.7 °F 77.0 °F 70% 30.01 in 10.0 mi WSW 6.9 mph - N/A   Scattered Clouds
11:16 AM 87.8 °F 99.7 °F 77.0 °F 70% 30.01 in 10.0 mi WNW 9.2 mph - N/A   Scattered Clouds
11:36 AM 89.6 °F 99.8 °F 75.2 °F 62% 30.01 in 10.0 mi West 6.9 mph - N/A   Clear
11:56 AM 86.0 °F 93.4 °F 73.4 °F 66% 30.01 in 10.0 mi NW 4.6 mph - N/A   Scattered Clouds
12:15 PM 87.8 °F 99.7 °F 77.0 °F 70% 30.00 in 10.0 mi WNW 4.6 mph - N/A   Scattered Clouds
12:36 PM 89.6 °F 102.2 °F 77.0 °F 66% 29.99 in 10.0 mi Calm Calm - N/A   Scattered Clouds
12:56 PM 89.6 °F 99.8 °F 75.2 °F 62% 29.99 in 10.0 mi NW 6.9 mph - N/A   Scattered Clouds
1:16 PM 91.4 °F 102.5 °F 75.2 °F 59% 29.99 in 10.0 mi NW 6.9 mph - N/A   Scattered Clouds
1:36 PM 91.4 °F 102.5 °F 75.2 °F 59% 29.99 in 10.0 mi Calm Calm - N/A   Clear
2:16 PM 91.4 °F 102.5 °F 75.2 °F 59% 29.98 in 10.0 mi WNW 5.8 mph - N/A   Clear
2:36 PM 91.4 °F 102.5 °F 75.2 °F 59% 29.97 in 10.0 mi NW 4.6 mph - N/A   Clear
2:56 PM 91.4 °F 100.1 °F 73.4 °F 55% 29.96 in 10.0 mi NW 3.5 mph - N/A   Clear
3:16 PM 93.2 °F 105.0 °F 75.2 °F 56% 29.95 in 10.0 mi NW 5.8 mph - N/A Thunderstorm Scattered Clouds
3:36 PM 91.4 °F 100.1 °F 73.4 °F 55% 29.95 in 10.0 mi Calm Calm - N/A   Clear
3:55 PM 91.4 °F 100.1 °F 73.4 °F 55% 29.95 in 10.0 mi WNW 3.5 mph - N/A   Scattered Clouds
4:36 PM 91.4 °F 100.1 °F 73.4 °F 55% 29.94 in 10.0 mi NW 3.5 mph - N/A   Scattered Clouds
4:56 PM 91.4 °F 102.5 °F 75.2 °F 59% 29.94 in 10.0 mi WNW 3.5 mph - N/A   Scattered Clouds
5:16 PM 91.4 °F 100.1 °F 73.4 °F 55% 29.94 in 10.0 mi Calm Calm - N/A   Mostly Cloudy
5:36 PM 89.6 °F 104.7 °F 78.8 °F 70% 29.95 in 10.0 mi SSE 9.2 mph - N/A   Mostly Cloudy
5:56 PM 89.6 °F 104.7 °F 78.8 °F 70% 29.95 in 10.0 mi South 4.6 mph - N/A   Scattered Clouds
6:16 PM 89.6 °F 102.2 °F 77.0 °F 66% 29.94 in 10.0 mi South 5.8 mph - N/A   Clear
6:36 PM 89.6 °F 104.7 °F 78.8 °F 70% 29.94 in 10.0 mi SSE 5.8 mph - N/A   Scattered Clouds
6:56 PM 87.8 °F 102.5 °F 78.8 °F 75% 29.95 in 10.0 mi South 5.8 mph - N/A   Scattered Clouds
7:37 PM 84.2 °F 92.3 °F 75.2 °F 74% 29.95 in 10.0 mi SW 3.5 mph - N/A   Clear
7:56 PM 82.4 °F 89.5 °F 75.2 °F 79% 29.94 in 10.0 mi Calm Calm - N/A   Clear
8:37 PM 82.4 °F 89.5 °F 75.2 °F 79% 29.94 in 10.0 mi South 4.6 mph - N/A   Clear
8:56 PM 80.6 °F 86.2 °F 75.2 °F 84% 29.94 in 10.0 mi Calm Calm - N/A   Clear
9:56 PM 80.6 °F 86.2 °F 75.2 °F 84% 29.96 in 10.0 mi Calm Calm - N/A   Clear
10:16 PM 78.8 °F - 75.2 °F 89% 29.95 in 10.0 mi Calm Calm - N/A   Clear
10:35 PM 78.8 °F - 75.2 °F 89% 29.95 in 10.0 mi Calm Calm - N/A   Clear
10:56 PM 78.8 °F - 75.2 °F 89% 29.94 in 10.0 mi Calm Calm - N/A   Clear
11:18 PM 78.8 °F - 75.2 °F 89% 29.94 in 10.0 mi Calm Calm - N/A   Clear
11:36 PM 77.0 °F - 75.2 °F 94% 29.96 in 10.0 mi Calm Calm - N/A   Clear
11:56 PM 77.0 °F - 75.2 °F 94% 29.96 in 10.0 mi Calm Calm - N/A   Clear